This is the latest recevied weather packets stored in our database for station/object EA7URS-13. If no packets are shown the sender has not sent any weather packets the latest 10 day(s).
| Time | Temp. | Humidity | Pressure | Rain* | Wind** | Luminosity | Snow |
|---|---|---|---|---|---|---|---|
| 1788160329 | 24.44° C | 52% | 1010.4 hPa | 0 mm | - | 97 W/m² | - |
| 1788160028 | 24.44° C | 52% | 1010.4 hPa | 0 mm | - | 97 W/m² | - |
| 1788159727 | 23.33° C | 54% | 1010.2 hPa | 0 mm | - | 78 W/m² | - |
| 1788159426 | 23.33° C | 54% | 1010.2 hPa | 0 mm | - | 78 W/m² | - |
| 1788159125 | 23.33° C | 54% | 1010.2 hPa | 0 mm | - | 60 W/m² | - |
| 1788158829 | 23.33° C | 54% | 1010.2 hPa | 0 mm | - | 60 W/m² | - |
| 1788158523 | 23.33° C | 55% | 1010.4 hPa | 0 mm | - | 44 W/m² | - |
| 1788158221 | 23.33° C | 55% | 1010.4 hPa | 0 mm | - | 44 W/m² | - |
| 1788157920 | 22.78° C | 57% | 1010.1 hPa | 0 mm | - | 25 W/m² | - |
| 1788157619 | 22.78° C | 57% | 1010.1 hPa | 0 mm | - | 25 W/m² | - |
| 1788157318 | 22.22° C | 59% | 1010 hPa | 0 mm | - | 18 W/m² | - |
| 1788157017 | 22.22° C | 59% | 1010 hPa | 0 mm | - | 18 W/m² | - |
| 1788156716 | 21.67° C | 60% | 1009.9 hPa | 0 mm | - | 10 W/m² | - |
| 1788156415 | 21.67° C | 60% | 1009.9 hPa | 0 mm | - | 10 W/m² | - |
| 1788156114 | 21.67° C | 60% | 1009.9 hPa | 0 mm | - | 4 W/m² | - |
| 1788155813 | 21.67° C | 60% | 1009.9 hPa | 0 mm | - | 4 W/m² | - |
| 1788155512 | 21.67° C | 62% | 1009.7 hPa | 0 mm | - | 1 W/m² | - |
| 1788155210 | 21.67° C | 62% | 1009.7 hPa | 0 mm | - | 1 W/m² | - |
| 1788154910 | 21.67° C | 61% | 1009.7 hPa | 0 mm | - | 0 W/m² | - |
| 1788154609 | 21.67° C | 61% | 1009.7 hPa | 0 mm | - | 0 W/m² | - |
| 1788154307 | 21.67° C | 62% | 1009.5 hPa | 0 mm | - | 0 W/m² | - |
| 1788154006 | 21.67° C | 62% | 1009.5 hPa | 0 mm | - | 0 W/m² | - |
| 1788153705 | 22.22° C | 63% | 1009.4 hPa | 0 mm | - | 0 W/m² | - |
| 1788153404 | 22.22° C | 63% | 1009.4 hPa | 0 mm | - | 0 W/m² | - |
| 1788153103 | 22.22° C | 63% | 1009.5 hPa | 0 mm | - | 0 W/m² | - |
* Rain latest hour (hover to see other rain measurements)
** Current wind speed in m/s (hover to see current wind gust speed)